Location: Frosinone
(41.6330°N, 13.3170°E)
Time: 12:22:11
(UTC+02:00)

ISS - Visible Passes

Search period start: 11 May 2021 00:00
Search period end: 21 May 2021 00:00
Orbit: 418 x 421 km, 51.6° (Epoch: 11 May)

Date Brightness Start Highest point End Pass type
(mag) Time Alt. Az. Time Alt. Az. Time Alt. Az.
11 May -0.8 02:04:21 17° N 02:04:21 17° N 02:06:17 10° NNE visible
11 May -0.8 03:39:28 10° NNW 03:41:44 17° N 03:44:01 10° NE visible
11 May -2.4 05:15:56 10° NW 05:19:12 44° NNE 05:22:28 10° ESE visible
12 May -0.5 01:18:16 13° NNE 01:18:16 13° NNE 01:18:55 10° NE visible
12 May -0.6 02:51:58 10° NW 02:54:04 15° N 02:56:10 10° NE visible
12 May -1.7 04:28:36 10° NW 04:31:40 31° NNE 04:34:43 10° E visible
13 May -0.7 02:05:02 12° NNW 02:06:23 15° N 02:08:25 10° NE visible
13 May -1.3 03:41:17 10° NW 03:44:05 23° NNE 03:46:54 10° ENE visible
14 May -0.7 01:18:38 15° N 01:18:41 15° N 01:20:49 10° NNE visible
14 May -0.9 02:53:56 10° NNW 02:56:28 19° NNE 02:58:59 10° ENE visible
14 May -3.5 04:30:22 10° NW 04:33:45 71° NE 04:37:06 10° ESE visible
14 May -2.4 21:14:27 10° S 21:17:01 20° SE 21:19:36 10° E visible
14 May -2.9 22:50:20 10° WSW 22:53:36 49° NNW 22:55:37 21° NE visible
15 May -0.8 00:28:42 10° NW 00:31:01 17° N 00:33:20 10° NNE visible
15 May -0.7 02:06:32 10° NNW 02:08:48 17° N 02:11:05 10° NE visible
15 May -2.6 03:42:59 10° NW 03:46:15 44° NNE 03:49:31 10° ESE visible
15 May -3.7 22:02:47 10° WSW 22:06:09 80° NNW 22:09:31 10° NE visible
15 May -1.0 23:40:47 10° WNW 23:43:22 20° NNW 23:45:58 10° NE visible
16 May -0.6 01:19:02 10° NW 01:21:07 15° N 01:23:13 10° NE visible
16 May -1.8 02:55:40 10° NW 02:58:43 31° NNE 03:01:46 10° E visible
16 May -3.3 04:32:23 10° WNW 04:35:35 39° SW 04:38:45 10° SSE visible
16 May -3.8 21:15:25 10° SW 21:18:43 60° SE 21:22:02 10° ENE visible
16 May -1.4 22:52:53 10° W 22:55:44 25° NNW 22:58:37 10° NE visible
17 May -0.6 00:31:24 10° NW 00:33:26 15° N 00:35:27 10° NE visible
17 May -1.3 02:08:20 10° NW 02:11:08 24° NNE 02:13:56 10° ENE visible
17 May -3.9 03:45:03 11° WNW 03:48:12 69° SW 03:51:34 10° SE visible
17 May -1.9 22:05:04 10° W 22:08:10 33° NNW 22:11:17 10° NE visible
17 May -0.6 23:43:37 10° NW 23:45:44 15° N 23:47:51 10° NNE visible
18 May -0.9 01:20:58 10° NNW 01:22:56 18° N 01:22:56 18° N visible
18 May -2.7 21:17:22 10° WSW 21:20:38 49° NNW 21:23:56 10° NE visible
18 May -0.7 22:55:44 10° NW 22:58:03 17° N 23:00:23 10° NNE visible
19 May -0.8 00:33:34 10° NNW 00:35:50 17° N 00:36:31 16° NNE visible
19 May -1.0 22:07:49 10° WNW 22:10:23 20° NNW 22:12:58 10° NE visible
19 May -0.7 23:46:04 10° NNW 23:48:09 15° N 23:50:14 10° NE visible
20 May -0.8 01:22:41 10° NW 01:23:17 14° NW 01:23:17 14° NW visible
20 May -1.3 21:19:55 10° WNW 21:22:46 25° NNW 21:25:37 10° NE visible
20 May -0.7 22:58:25 10° NW 23:00:27 15° N 23:02:29 10° NE visible
